Biloxi, MS

5:30 PM CST on February 08, 2016 (GMT -0600)
Keesler Air Force Base

Weather History for KBIX - November, 2012

Change the Weather History Date:

Thursday, November 15, 2012

  Actual Average Record
Temperature  
Mean Temperature 52 °F -  
Max Temperature 64 °F 69 °F 83 °F (1980)
Min Temperature 41 °F 50 °F 29 °F (1969)
Degree Days  
Heating Degree Days 12    
Growing Degree Days 2 (Base 50)    
Moisture  
Dew Point 44 °F    
Average Humidity 73    
Maximum Humidity 89    
Minimum Humidity 49    
Precipitation  
Precipitation 0.00 in - - ()
Sea Level Pressure  
Sea Level Pressure 30.24 in    
Wind  
Wind Speed 6 mph (NNE)    
Max Wind Speed 10 mph    
Max Gust Speed -    
Visibility 10 miles    
Events      
Averages and records for this station are not official NWS values.
T = Trace of Precipitation, MM = Missing Value Source: NWS Daily Summary

Daily Weather History Graph

Daily Weather History Graph

Search for Another Location

Airport or City:

Trip Planner

Search our weather history database for the weather conditions in past years. The results will help you decide how hot, cold, wet, or windy it might be!

Date:

Astronomy

Nov. 15, 2012 Rise Set
Actual Time 6:21 AM CST 4:58 PM CST
Civil Twilight 5:56 AM CST 5:24 PM CST
Nautical Twilight 5:27 AM CST 5:53 PM CST
Astronomical Twilight 4:58 AM CST 6:21 PM CST
Moon 8:12 AM CST (11/15) 6:54 PM CST (11/15)
Length of Visible Light 11h 27m
Length of Day
10h 36m
Waxing Crescent, 5% of the Moon is Illuminated
Nov 15
Waxing Crescent
Nov 20
First Quarter
Nov 28
Full
Dec 6
Last Quarter
Dec 13
New

Hourly Weather History & Observations

Time (CST) Temp. Windchill Dew Point Humidity Pressure Visibility Wind Dir Wind Speed Gust Speed Precip Events Conditions
12:55 AM 45.5 °F 42.5 °F 38.5 °F 76% 30.25 in 10.0 mi North 5.8 mph - N/A   Clear
1:55 AM 45.1 °F 40.3 °F 39.0 °F 79% 30.24 in 10.0 mi North 9.2 mph - N/A   Clear
2:55 AM 43.2 °F 38.4 °F 38.1 °F 82% 30.22 in 10.0 mi North 8.1 mph - N/A   Clear
3:55 AM 42.6 °F 38.4 °F 37.9 °F 83% 30.23 in 10.0 mi North 6.9 mph - N/A   Clear
4:55 AM 42.3 °F 38.6 °F 38.1 °F 85% 30.24 in 10.0 mi NNE 5.8 mph - N/A   Clear
5:55 AM 41.2 °F 37.3 °F 37.8 °F 88% 30.24 in 10.0 mi North 5.8 mph - N/A   Clear
6:55 AM 41.5 °F 37.1 °F 38.5 °F 89% 30.26 in 10.0 mi North 6.9 mph - N/A   Clear
7:55 AM 45.0 °F 41.8 °F 40.6 °F 85% 30.28 in 10.0 mi NNE 5.8 mph - N/A   Clear
8:55 AM 50.9 °F - 44.4 °F 78% 30.29 in 10.0 mi NE 5.8 mph - N/A   Clear
9:55 AM 56.7 °F - 47.1 °F 70% 30.29 in 10.0 mi NNE 8.1 mph - N/A   Clear
10:55 AM 60.4 °F - 45.3 °F 57% 30.27 in 10.0 mi NNE 8.1 mph - N/A   Clear
11:55 AM 62.1 °F - 45.7 °F 55% 30.25 in 10.0 mi North 6.9 mph - N/A   Clear
12:55 PM 64.4 °F - 44.6 °F 49% 30.22 in 10.0 mi NE 8.1 mph - N/A   Clear
1:55 PM 64.9 °F - 45.3 °F 49% 30.20 in 10.0 mi NNE 10.4 mph - N/A   Clear
2:55 PM 64.6 °F - 45.5 °F 50% 30.19 in 10.0 mi North 4.6 mph - N/A   Clear
3:55 PM 63.7 °F - 44.8 °F 50% 30.19 in 10.0 mi NNE 6.9 mph - N/A   Clear
4:55 PM 60.6 °F - 46.6 °F 60% 30.21 in 10.0 mi NNE 3.5 mph - N/A   Clear
5:55 PM 55.6 °F - 47.7 °F 75% 30.21 in 10.0 mi North 3.5 mph - N/A   Clear
6:55 PM 55.8 °F - 46.9 °F 72% 30.23 in 10.0 mi North 3.5 mph - N/A   Clear
7:55 PM 52.9 °F - 47.1 °F 81% 30.24 in 10.0 mi NNE 3.5 mph - N/A   Clear
8:55 PM 52.0 °F - 46.6 °F 82% 30.26 in 10.0 mi NNE 4.6 mph - N/A   Clear
9:55 PM 51.3 °F - 46.8 °F 85% 30.26 in 10.0 mi NNE 4.6 mph - N/A   Clear
10:55 PM 51.3 °F - 46.8 °F 85% 30.27 in 10.0 mi ENE 5.8 mph - N/A   Clear
11:55 PM 50.4 °F - 46.6 °F 87% 30.25 in 10.0 mi ENE 6.9 mph - N/A   Clear